Location: Unspecified
(0.0000°N, 0.0000°E)
Time: 10:47:34
(UTC+00:00)

Cosmos 1271 Rocket - Pass Details

Date: 27 January 2013
Orbit: 502 x 549 km, 81.2° (Epoch: 29 August)

Event Time Altitude Azimuth Distance (km) Brightness Sun altitude
Rises 19:00:57 0° 166° (SSE) 2,646 6.4 -11.4°
Reaches altitude 10° 19:03:19 10° 154° (SSE) 1,765 5.3 -12.0°
Maximum altitude 19:06:38 27° 95° (E) 1,042 3.7 -12.8°
Enters shadow 19:08:18 20° 56° (NE) 1,270 4.1 -13.1°
